Weather History for KLRU - July, 2013

Change the Weather History Date:

Saturday, July 6, 2013

  Actual Average (KDMN) Record (KDMN)
Temperature  
Mean Temperature 85 °F 81 °F  
Max Temperature 99 °F 97 °F - ()
Min Temperature 71 °F 65 °F - ()
Cooling Degree Days 20    
Growing Degree Days 35 (Base 50)    
Moisture  
Dew Point 50 °F    
Average Humidity 30    
Maximum Humidity 56    
Minimum Humidity 15    
Precipitation  
Precipitation 0.00 in 0.06 in - ()
Month to date precipitation 0.32  
Year to date precipitation 3.43  
Sea Level Pressure  
Sea Level Pressure 29.95 in    
Wind  
Wind Speed 9 mph (NW)    
Max Wind Speed 18 mph    
Max Gust Speed 28 mph    
Visibility 10 miles    
Events Rain , Thunderstorm    
T = Trace of Precipitation, MM = Missing Value Source: NWS Daily Summary

Daily Weather History Graph

Daily Weather History Graph

Search for Another Location

Airport or City:

Trip Planner

Search our weather history database for the weather conditions in past years. The results will help you decide how hot, cold, wet, or windy it might be!

Date:

Astronomy

Jul. 06, 2013 Rise Set
Actual Time 6:06 AM MDT 8:17 PM MDT
Civil Twilight 5:38 AM MDT 8:46 PM MDT
Nautical Twilight 5:04 AM MDT 9:20 PM MDT
Astronomical Twilight 4:27 AM MDT 9:57 PM MDT
Moon 4:52 AM MDT (7/6) 7:04 PM MDT (7/6)
Length of Visible Light 15h 07m
Length of Day
14h 11m
Waning Crescent, 2% of the Moon is Illuminated
Jul 6
Waning Crescent
Jul 8
New
Jul 15
First Quarter
Jul 22
Full
Jul 29
Last Quarter

Hourly Weather History & Observations

Time (MDT) Temp. Heat Index Dew Point Humidity Pressure Visibility Wind Dir Wind Speed Gust Speed Precip Events Conditions
12:15 AM 81.7 °F - 52.5 °F 36% 29.98 in 10.0 mi NW 5.8 mph - N/A   Clear
12:35 AM 81.5 °F - 50.7 °F 34% 29.97 in 10.0 mi NNW 5.8 mph - N/A   Clear
12:55 AM 82.4 °F - 48.2 °F 30% 29.98 in 10.0 mi WNW 11.5 mph 27.6 mph N/A   Clear
1:15 AM 80.1 °F 80.0 °F 54.0 °F 40% 29.99 in 10.0 mi WSW 18.4 mph - N/A   Clear
1:35 AM 77.9 °F - 55.6 °F 46% 29.98 in 10.0 mi West 16.1 mph 23.0 mph N/A   Clear
1:55 AM 77.4 °F - 55.4 °F 47% 29.98 in 10.0 mi West 13.8 mph - N/A   Clear
2:15 AM 78.8 °F - 54.7 °F 43% 29.98 in 10.0 mi WNW 15.0 mph 24.2 mph N/A   Clear
2:35 AM 78.1 °F - 55.0 °F 45% 29.98 in 10.0 mi WNW 12.7 mph - N/A   Clear
2:55 AM 77.2 °F - 55.4 °F 47% 29.98 in 10.0 mi WNW 10.4 mph - N/A   Clear
3:15 AM 76.5 °F - 55.8 °F 49% 29.98 in 10.0 mi WNW 12.7 mph - N/A   Clear
3:35 AM 76.1 °F - 56.3 °F 50% 29.98 in 10.0 mi WNW 12.7 mph - N/A   Clear
3:55 AM 75.6 °F - 56.3 °F 51% 29.98 in 10.0 mi West 9.2 mph - N/A   Clear
4:15 AM 74.7 °F - 56.3 °F 53% 29.98 in 10.0 mi West 9.2 mph - N/A   Clear
4:35 AM 73.6 °F - 56.3 °F 55% 29.98 in 10.0 mi West 6.9 mph - N/A   Clear
4:55 AM 72.0 °F - 55.6 °F 56% 29.98 in 10.0 mi NW 5.8 mph - N/A   Clear
5:15 AM 71.2 °F - 54.9 °F 56% 29.98 in 10.0 mi North 5.8 mph - N/A   Clear
5:35 AM 75.6 °F - 52.0 °F 44% 29.98 in 10.0 mi North 6.9 mph - N/A   Clear
5:55 AM 75.6 °F - 50.0 °F 41% 29.98 in 10.0 mi North 9.2 mph - N/A   Clear
6:15 AM 76.3 °F - 50.0 °F 40% 29.98 in 10.0 mi NNE 12.7 mph 20.7 mph N/A   Clear
6:35 AM 75.9 °F - 51.6 °F 43% 29.98 in 10.0 mi North 13.8 mph - N/A   Clear
6:55 AM 76.8 °F - 52.3 °F 42% 29.99 in 10.0 mi North 12.7 mph - N/A   Clear
7:15 AM 77.9 °F - 52.7 °F 41% 29.99 in 10.0 mi North 12.7 mph - N/A   Clear
7:35 AM 79.0 °F - 52.5 °F 40% 29.99 in 10.0 mi North 11.5 mph - N/A   Clear
7:55 AM 81.3 °F - 50.9 °F 35% 30.00 in 10.0 mi North 10.4 mph - N/A   Clear
8:35 AM 84.0 °F - 50.4 °F 31% 30.00 in 10.0 mi North 5.8 mph - N/A   Clear
8:55 AM 84.9 °F - 50.0 °F 30% 30.00 in 10.0 mi North 4.6 mph - N/A   Clear
9:15 AM 85.6 °F - 50.0 °F 29% 30.00 in 10.0 mi NNE 6.9 mph - N/A   Clear
9:55 AM 87.6 °F - 49.3 °F 27% 30.01 in 10.0 mi East 4.6 mph - N/A   Clear
10:15 AM 87.6 °F - 48.9 °F 26% 30.00 in 10.0 mi SW 3.5 mph - N/A   Clear
10:35 AM 88.7 °F - 48.2 °F 25% 30.01 in 10.0 mi South 4.6 mph - N/A   Clear
11:15 AM 91.0 °F - 48.4 °F 23% 30.00 in 10.0 mi Calm Calm - N/A   Clear
11:55 AM 92.5 °F - 48.7 °F 22% 29.99 in 10.0 mi SSE 5.8 mph - N/A   Clear
12:15 PM 92.7 °F - 48.7 °F 22% 29.99 in 10.0 mi Calm Calm - N/A   Clear
12:35 PM 93.0 °F - 48.6 °F 22% 29.99 in 10.0 mi SW 5.8 mph - N/A   Clear
12:55 PM 94.3 °F - 48.0 °F 21% 29.97 in 10.0 mi SSE 8.1 mph - N/A   Clear
1:35 PM 95.0 °F - 46.8 °F 19% 29.95 in 10.0 mi SW 10.4 mph - N/A   Clear
1:55 PM 95.9 °F - 46.6 °F 18% 29.95 in 10.0 mi WSW 10.4 mph 16.1 mph N/A   Clear
2:15 PM 98.4 °F - 45.9 °F 17% 29.94 in 10.0 mi WNW 11.5 mph 18.4 mph N/A   Clear
2:35 PM 96.8 °F - 45.7 °F 17% 29.93 in 10.0 mi SSW 3.5 mph 9.2 mph N/A   Clear
2:55 PM 97.3 °F - 45.7 °F 17% 29.92 in 10.0 mi West 4.6 mph - N/A   Clear
3:15 PM 97.3 °F - 45.7 °F 17% 29.91 in 10.0 mi SW 6.9 mph - N/A   Scattered Clouds
3:35 PM 96.8 °F - 44.1 °F 16% 29.90 in 10.0 mi WNW 4.6 mph 17.3 mph N/A   Scattered Clouds
3:55 PM 99.3 °F - 43.7 °F 15% 29.90 in 10.0 mi SW 8.1 mph - N/A   Clear
4:15 PM 97.3 °F - 43.7 °F 16% 29.90 in 10.0 mi WNW 11.5 mph - N/A   Scattered Clouds
4:35 PM 96.3 °F - 44.6 °F 17% 29.90 in 10.0 mi NW 9.2 mph 21.9 mph N/A Thunderstorm Mostly Cloudy
4:55 PM 95.5 °F - 45.7 °F 18% 29.89 in 10.0 mi NNW 18.4 mph 26.5 mph N/A   Scattered Clouds
5:15 PM 94.8 °F - 45.1 °F 18% 29.88 in 10.0 mi North 15.0 mph 21.9 mph N/A Thunderstorm Mostly Cloudy
5:35 PM 91.6 °F 89.8 °F 56.5 °F 30% 29.88 in 10.0 mi East 15.0 mph 23.0 mph N/A Rain Light Rain
5:55 PM 93.7 °F - 47.5 °F 20% 29.88 in 10.0 mi East 8.1 mph - N/A   Scattered Clouds
6:15 PM 96.3 °F - 44.1 °F 17% 29.88 in 10.0 mi NE 4.6 mph - N/A   Clear
6:35 PM 95.7 °F - 46.2 °F 18% 29.88 in 10.0 mi ESE 6.9 mph - N/A   Clear
6:55 PM 94.5 °F - 48.0 °F 20% 29.88 in 10.0 mi SSE 4.6 mph - N/A   Clear
7:15 PM 93.7 °F - 48.6 °F 21% 29.88 in 10.0 mi East 4.6 mph - N/A   Clear
7:35 PM 91.6 °F - 50.2 °F 24% 29.89 in 10.0 mi East 4.6 mph - N/A   Clear
7:55 PM 91.2 °F - 47.7 °F 22% 29.90 in 10.0 mi Calm Calm - N/A   Clear
8:15 PM 90.5 °F - 45.5 °F 21% 29.90 in 10.0 mi Calm Calm - N/A   Clear
8:35 PM 90.5 °F - 45.1 °F 21% 29.91 in 10.0 mi Calm Calm - N/A   Clear
8:55 PM 89.6 °F - 45.5 °F 22% 29.92 in 10.0 mi Calm Calm - N/A   Clear
9:15 PM 90.3 °F - 45.0 °F 21% 29.92 in 10.0 mi Calm Calm - N/A   Clear
9:35 PM 88.5 °F - 45.3 °F 22% 29.92 in 10.0 mi Calm Calm - N/A   Clear
9:55 PM 88.3 °F - 45.5 °F 23% 29.94 in 10.0 mi SW 6.9 mph - N/A   Clear
10:15 PM 87.8 °F - 45.3 °F 23% 29.94 in 10.0 mi West 5.8 mph - N/A   Scattered Clouds
10:35 PM 85.6 °F - 46.0 °F 25% 29.95 in 10.0 mi NW 8.1 mph - N/A   Scattered Clouds
10:55 PM 85.1 °F - 49.1 °F 29% 29.95 in 10.0 mi NW 9.2 mph - N/A   Clear
11:15 PM 83.7 °F - 49.6 °F 31% 29.95 in 10.0 mi NNW 9.2 mph - N/A   Scattered Clouds
11:35 PM 84.2 °F - 49.5 °F 30% 29.95 in 10.0 mi NNW 10.4 mph - N/A   Scattered Clouds
11:55 PM 83.1 °F - 50.2 °F 32% 29.95 in 10.0 mi NNW 10.4 mph - N/A   Clear